Regional Weather Roundup
Issued by NWS State College, PA

Home | Current Version | Previous Version | Graphics & Text | Print | Product List | Glossary On
Versions: 1 2 3 4 5 6 7 8 9 10 11 12 13 14 15 16 17 18 19 20 21 22 23 24 25 26 27 28 29 30 31 32 33 34 35 36 37 38 39 40 41 42 43 44 45 46 47 48 49 50
185
ASUS41 KCTP 212103
RWRCTP
NATIONAL WEATHER SERVICE STATE COLLEGE PA
500 PM EDT THU SEP 21 2017

Note: "fair" indicates few or no clouds below 12,000 feet with no
significant weather and/or obstructions to visibility.

* = STATION THAT DOES NOT REPORT PRECIPITATION /E.G. RAIN...SNOW...ETC/
    THUNDER OR FOG.

PAZ002>004-007>009-013>016-020>023-029>032-212200-
WESTERN PENNSYLVANIA

CITY           SKY/WX    TMP DP  RH WIND       PRES   REMARKS
ERIE           SUNNY     78  65  63 N8        30.09S
MEADVILLE      SUNNY     82  60  47 NW3       30.10F
FRANKLIN*      SUNNY     82  58  43 CALM      30.12S
NEW CASTLE     FAIR      85  64  49 NE6       30.09S
BEAVER COUNTY  MOSUNNY   84  61  45 CALM      30.09S
BUTLER*        SUNNY     83  62  49 CALM      30.09F
PITTSBURGH INT MOSUNNY   84  62  47 CALM      30.08F
PITTSBURGH     MOSUNNY   84  59  42 N3        30.08F
INDIANA*       SUNNY     82  59  44 NW5       30.12S
LATROBE        MOSUNNY   82  59  44 CALM      30.09F
WASHINGTON CO* CLOUDY    82  63  51 CALM      30.09F
$$

PAZ004>006-010>012-017>019-024>028-033>037-041-042-045-046-049>053-212200-
CENTRAL PENNSYLVANIA

CITY           SKY/WX    TMP DP  RH WIND       PRES   REMARKS
BRADFORD       SUNNY     80  56  43 N5        30.14S
DUBOIS         SUNNY     81  51  35 N6        30.11F
CLEARFIELD     SUNNY     83  52  34 NW6       30.10F
JOHNSTOWN      MOSUNNY   79  58  48 NW6       30.13S
ALTOONA        SUNNY     80  58  46 VRB3      30.10S
STATE COLLEGE  SUNNY     81  59  47 E6        30.08F
WILLIAMSPORT   SUNNY     88  58  36 N10       30.02R
SELINSGROVE    SUNNY     86  64  47 VRB3      30.03S
FT INDIANTOWN  PTSUNNY   84  63  49 N6        30.02S
CAPITAL CITY   SUNNY     87  60  40 N9        30.02S
HARRISBURG     PTSUNNY   85  65  51 W6        30.01R
YORK           SUNNY     84  63  49 N6        30.02S
$$

PAZ038>040-043-044-047-048-054-055-060>062-067>071-212200-
EASTERN PENNSYLVANIA

CITY           SKY/WX    TMP DP  RH WIND       PRES   REMARKS
SCRANTON       CLOUDY    81  65  58 NW10      30.05S
MOUNT POCONO   MOSUNNY   76  62  62 NW8       30.09R
ALLENTOWN      MOSUNNY   87  62  43 CALM      30.00R
QUAKERTOWN*    CLOUDY    82  63  51 CALM      30.02S
READING        CLOUDY    86  65  49 N6        29.99S
LANCASTER      CLOUDY    84  66  54 N7        30.01S
COATESVILLE    PTCLDY    82  64  54 N5        30.03S
POTTSTOWN      MOSUNNY   84  62  47 NE6       30.02
BLUE BELL      PTSUNNY   81  63  54 NE6       30.01R
DOYLESTOWN     PTSUNNY   82  63  52 NE3       30.00S
WILLOW GROVE   NOT AVBL
NORTH PHILA    CLOUDY    84  62  47 N12       30.01R
PHILADELPHIA   PTSUNNY   87  61  41 N10G21    29.98S
$$




USA.gov is the U.S. government's official web portal to all federal, state and local government web resources and services.